Overview Statistics Trail Chart Weather Telemetry Raw packets
 

This is the latest recevied weather packets stored in our database for station/object 4S6DRJ-13. If no packets are shown the sender has not sent any weather packets the latest 10 day(s).

<< 528 529 530 531 532 533 534 >>
Time Temp. Humidity Pressure Rain* Wind** Luminosity Snow
1787638994 30.56° C 76% 1010.3 hPa 0 mm 1.34 m/s, 265° 671 W/m² -
1787638933 30.56° C 76% 1010.5 hPa 0 mm 1.34 m/s, 255° 474 W/m² -
1787638872 30.56° C 76% 1010.5 hPa 0 mm 0.89 m/s, 232° 519 W/m² -
1787638811 30.56° C 76% 1010.7 hPa 0 mm 1.34 m/s, 264° 348 W/m² -
1787638750 30.56° C 76% 1010.5 hPa 0 mm 1.79 m/s, 223° 445 W/m² -
1787638689 30.56° C 76% 1010.7 hPa 0 mm 1.79 m/s, 339° 982 W/m² -
1787638628 30° C 77% 1010.7 hPa 0 mm 2.24 m/s, 186° 975 W/m² -
1787638567 30° C 77% 1010.7 hPa 0 mm 1.79 m/s, 341° 647 W/m² -
1787638507 30° C 77% 1010.9 hPa 0 mm 1.34 m/s, 177° 613 W/m² -
1787638445 30.56° C 76% 1010.7 hPa 0 mm 2.24 m/s, 217° 656 W/m² -
1787638384 30.56° C 76% 1010.9 hPa 0 mm 4.92 m/s, 230° 678 W/m² -
1787638323 30.56° C 76% 1010.9 hPa 0 mm 1.79 m/s, 178° 731 W/m² -
1787638262 30.56° C 77% 1010.8 hPa 0 mm 1.79 m/s, 2° 504 W/m² -
1787638201 30.56° C 76% 1010.8 hPa 0 mm 0.89 m/s, 349° 492 W/m² -
1787638140 30.56° C 75% 1010.9 hPa 0 mm 2.68 m/s, 253° 437 W/m² -
1787638079 30.56° C 76% 1010.8 hPa 0 mm 2.68 m/s, 302° 498 W/m² -
1787638018 30.56° C 76% 1010.9 hPa 0 mm 2.24 m/s, 307° 589 W/m² -
1787637957 30.56° C 76% 1010.9 hPa 0 mm 0.89 m/s, 235° 684 W/m² -
1787637896 30.56° C 76% 1010.9 hPa 0 mm 2.24 m/s, 243° 636 W/m² -
1787637835 30.56° C 76% 1010.9 hPa 0 mm 2.24 m/s, 232° 1129 W/m² -
1787637774 30.56° C 76% 1011 hPa 0 mm 2.24 m/s, 302° 1126 W/m² -
1787637713 30.56° C 76% 1011.1 hPa 0 mm 2.68 m/s, 217° 1130 W/m² -
1787637652 30.56° C 76% 1010.8 hPa 0 mm 1.79 m/s, 185° 370 W/m² -
1787637591 30.56° C 75% 1010.7 hPa 0 mm 0.45 m/s, 158° 1126 W/m² -
1787637530 30.56° C 75% 1010.7 hPa 0 mm 1.79 m/s, 226° 338 W/m² -

* Rain latest hour (hover to see other rain measurements)
** Current wind speed in m/s (hover to see current wind gust speed)